Location: Katherine
(14.4670°S, 132.2670°E)
Time: 14:22:55
(UTC+09:30)

ISS - Pass Details

Date: 17 February 2018
Orbit: 402 x 407 km, 51.6° (Epoch: 23 February)

Event Time Altitude Azimuth Distance (km) Brightness Sun altitude
Rises 20:01:12 0° 344° (NNW) 2,300 0.0 -12.6°
Reaches altitude 10° 20:03:29 10° 358° (N) 1,448 -1.2 -13.2°
Enters shadow 20:06:09 25° 53° (NE) 859 -2.7 -13.8°
